Date String (YYYY-MM-DD hh:mm:ss) UTC,Instrument flags,absolute air pressure of the measurement (hPa),sample flow rate (lpm),inlet stack bypass flow (lpm),air temperature of the measurement (°C),ambient temperature measured by the external sensor (°C),aerosol sample conditioner tube jacket temperature (°C),OPC LED temperature (°C),internal box temperature (°C),relative humidity of the measurement (%),span deviation,mass concentration of particles derived from Lorenz-Mie calculation of OPC scattering (μg/m³),mass concentration of particles derived from Lorenz-Mie calculation of OPC scattering (μg/m³),mass concentration of particles derived from Lorenz-Mie calculation of OPC scattering (μg/m³)
DateTimeUTC,F1_M11,P_M11,Q1_M11,Q2_M11,T1_M11,T2_M11,T3_M11,T4_M11,T5_M11,U1_M11,ZSPAN_M11,X2_M11,X0_M11,X1_M11
2023-11-08 22:00:00,SystemResetWarning,0832.8,5.00,000.00,024.0,023.1,000.0,032.4,025.4,22.0,0000.0,0003.76,0005.18,0003.54
2023-11-08 22:01:00,SystemResetWarning,0832.8,5.00,000.00,024.0,023.1,000.0,032.4,025.4,22.0,0000.0,0003.75,0005.08,0003.53
2023-11-08 22:02:00,SystemResetWarning,0832.8,5.00,000.00,024.0,023.1,000.0,032.4,025.3,21.8,0000.0,0003.75,0005.17,0003.52
2023-11-08 22:03:00,SystemResetWarning,0832.8,5.00,000.00,024.0,023.1,000.0,032.4,025.4,21.9,0000.0,0003.76,0005.30,0003.50
2023-11-08 22:04:00,SystemResetWarning,0832.8,5.00,000.00,024.0,023.1,000.0,032.4,025.4,21.5,0000.0,0003.73,0005.19,0003.48
2023-11-08 22:05:00,SystemResetWarning,0832.8,5.00,000.00,024.0,023.1,000.0,032.4,025.3,21.5,0000.0,0003.70,0005.14,0003.47
2023-11-08 22:06:00,SystemResetWarning,0832.8,5.00,000.00,023.9,023.1,000.0,032.4,025.3,21.6,0000.0,0003.70,0005.17,0003.46
2023-11-08 22:07:00,SystemResetWarning,0832.8,5.00,000.00,024.0,023.1,000.0,032.4,025.3,21.7,0000.0,0003.66,0005.02,0003.44
2023-11-08 22:08:00,SystemResetWarning,0832.8,5.00,000.00,023.9,023.1,000.0,032.4,025.2,21.7,0000.0,0003.64,0004.93,0003.43
2023-11-08 22:09:00,SystemResetWarning,0832.8,5.00,000.00,023.9,023.1,000.0,032.4,025.2,21.7,0000.0,0003.64,0004.97,0003.42
2023-11-08 22:10:00,SystemResetWarning,0832.8,4.99,000.00,023.9,023.1,000.0,032.4,025.3,21.9,0000.0,0003.66,0005.06,0003.42
2023-11-08 22:11:00,SystemResetWarning,0832.8,5.00,000.00,023.9,023.1,000.0,032.4,025.3,21.8,0000.0,0003.70,0005.27,0003.42
2023-11-08 22:12:00,SystemResetWarning,0832.7,5.00,000.00,023.9,023.0,000.0,032.3,025.2,21.6,0000.0,0003.70,0005.51,0003.40
2023-11-08 22:13:00,SystemResetWarning,0832.7,5.00,000.00,023.9,023.0,000.0,032.3,025.1,21.6,0000.0,0003.70,0005.63,0003.39
2023-11-08 22:14:00,SystemResetWarning,0832.7,5.00,000.00,023.9,023.0,000.0,032.3,025.1,21.5,0000.0,0003.67,0005.52,0003.39
2023-11-08 22:15:00,SystemResetWarning,0832.8,5.00,000.00,023.9,023.0,000.0,032.3,025.2,21.4,0000.0,0003.67,0005.47,0003.39
2023-11-08 22:16:00,SystemResetWarning,0832.8,5.00,000.00,023.9,023.0,000.0,032.3,025.2,21.6,0000.0,0003.67,0005.48,0003.38
2023-11-08 22:17:00,SystemResetWarning,0832.8,5.00,000.00,023.9,023.0,000.0,032.3,025.1,21.7,0000.0,0003.65,0005.43,0003.38
2023-11-08 22:18:00,SystemResetWarning,0832.9,4.99,000.00,023.8,023.0,000.0,032.3,025.0,21.8,0000.0,0003.65,0005.76,0003.37
2023-11-08 22:19:00,SystemResetWarning,0833.1,5.00,000.00,023.8,023.0,000.0,032.3,025.1,21.9,0000.0,0003.64,0005.84,0003.36
2023-11-08 22:20:00,SystemResetWarning,0833.2,5.00,000.00,023.8,023.0,000.0,032.3,025.2,22.1,0000.0,0003.63,0005.83,0003.35
2023-11-08 22:21:00,SystemResetWarning,0833.1,5.00,000.00,023.8,023.0,000.0,032.3,025.1,21.8,0000.0,0003.62,0005.79,0003.35
2023-11-08 22:22:00,SystemResetWarning,0833.0,5.00,000.00,023.8,023.0,000.0,032.3,025.1,21.8,0000.0,0003.57,0005.60,0003.33
2023-11-08 22:23:00,SystemResetWarning,0833.0,5.00,000.00,023.8,022.9,000.0,032.3,025.1,21.8,0000.0,0003.56,0005.43,0003.33
2023-11-08 22:24:00,SystemResetWarning,0832.9,5.00,000.00,023.8,022.9,000.0,032.3,025.1,21.6,0000.0,0003.55,0005.20,0003.33
2023-11-08 22:25:00,SystemResetWarning,0833.4,4.99,000.00,023.8,022.9,000.0,032.3,025.0,21.7,0000.0,0003.55,0005.16,0003.33
2023-11-08 22:26:00,SystemResetWarning,0833.1,5.00,000.00,023.8,022.9,000.0,032.2,024.9,21.7,0000.0,0003.55,0005.17,0003.32
2023-11-08 22:27:00,SystemResetWarning,0833.1,5.00,000.00,023.8,022.9,000.0,032.2,025.0,21.7,0000.0,0003.55,0005.16,0003.32
2023-11-08 22:28:00,SystemResetWarning,0833.3,5.00,000.00,023.8,022.9,000.0,032.2,025.0,21.6,0000.0,0003.54,0005.12,0003.31
2023-11-08 22:29:00,SystemResetWarning,0833.1,5.00,000.00,023.7,022.8,000.0,032.2,024.9,21.4,0000.0,0003.56,0005.05,0003.32
2023-11-08 22:30:00,SystemResetWarning,0833.1,5.00,000.00,023.7,022.8,000.0,032.2,024.9,21.2,0000.0,0003.57,0004.95,0003.32
2023-11-08 22:31:00,SystemResetWarning,0833.1,5.00,000.00,023.7,022.8,000.0,032.2,024.8,21.0,0000.0,0003.57,0004.91,0003.31
2023-11-08 22:32:00,SystemResetWarning,0833.1,5.00,000.00,023.7,022.8,000.0,032.2,024.8,20.8,0000.0,0003.54,0004.79,0003.30
2023-11-08 22:33:00,SystemResetWarning,0833.1,5.00,000.00,023.7,022.7,000.0,032.2,024.8,20.8,0000.0,0003.51,0004.67,0003.29
2023-11-08 22:34:00,SystemResetWarning,0833.2,5.00,000.00,023.7,022.7,000.0,032.1,024.9,20.9,0000.0,0003.49,0004.65,0003.29
2023-11-08 22:35:00,SystemResetWarning,0833.2,5.00,000.00,023.6,022.7,000.0,032.1,024.8,20.9,0000.0,0003.47,0005.10,0003.28
2023-11-08 22:36:00,SystemResetWarning,0833.2,5.00,000.00,023.6,022.7,000.0,032.1,024.8,21.2,0000.0,0003.47,0005.24,0003.27
2023-11-08 22:37:00,SystemResetWarning,0833.2,5.00,000.00,023.6,022.7,000.0,032.1,024.9,21.5,0000.0,0003.47,0005.33,0003.25
2023-11-08 22:38:00,SystemResetWarning,0833.2,5.00,000.00,023.6,022.7,000.0,032.1,024.8,21.3,0000.0,0003.47,0005.31,0003.25
2023-11-08 22:39:00,SystemResetWarning,0833.3,5.00,000.00,023.6,022.7,000.0,032.1,024.8,21.2,0000.0,0003.46,0005.28,0003.25
2023-11-08 22:40:00,SystemResetWarning,0833.3,5.00,000.00,023.6,022.7,000.0,032.1,024.9,21.0,0000.0,0003.43,0005.97,0003.25
2023-11-08 22:41:00,SystemResetWarning,0833.3,5.00,000.00,023.6,022.7,000.0,032.1,024.9,20.9,0000.0,0003.44,0006.48,0003.25
2023-11-08 22:42:00,SystemResetWarning,0833.3,5.00,000.00,023.6,022.7,000.0,032.0,024.7,21.0,0000.0,0003.44,0006.63,0003.26
2023-11-08 22:43:00,SystemResetWarning,0833.3,5.00,000.00,023.5,022.7,000.0,032.0,024.7,21.1,0000.0,0003.47,0006.98,0003.27
2023-11-08 22:44:00,SystemResetWarning,0833.3,4.99,000.00,023.5,022.6,000.0,032.0,024.6,21.1,0000.0,0003.49,0007.55,0003.28
2023-11-08 22:45:00,SystemResetWarning,0833.4,4.99,000.00,023.5,022.6,000.0,032.0,024.6,21.1,0000.0,0003.49,0007.55,0003.26
2023-11-08 22:46:00,SystemResetWarning,0833.4,5.00,000.00,023.5,022.6,000.0,032.0,024.6,21.3,0000.0,0003.49,0007.58,0003.25
2023-11-08 22:47:00,SystemResetWarning,0833.4,5.01,000.00,023.5,022.6,000.0,032.0,024.6,21.3,0000.0,0003.48,0007.77,0003.25
2023-11-08 22:48:00,SystemResetWarning,0833.4,5.00,000.00,023.5,022.6,000.0,032.0,024.5,21.1,0000.0,0003.48,0007.96,0003.26
2023-11-08 22:49:00,SystemResetWarning,0833.4,5.00,000.00,023.4,022.6,000.0,032.0,024.5,21.1,0000.0,0003.47,0008.20,0003.25
2023-11-08 22:50:00,SystemResetWarning,0833.5,5.00,000.00,023.4,022.5,000.0,031.9,024.5,21.1,0000.0,0003.46,0008.19,0003.24
2023-11-08 22:51:00,SystemResetWarning,0833.5,5.00,000.00,023.4,022.5,000.0,031.9,024.4,21.2,0000.0,0003.45,0007.81,0003.22
2023-11-08 22:52:00,SystemResetWarning,0833.5,5.00,000.00,023.4,022.5,000.0,031.9,024.4,21.5,0000.0,0003.44,0007.44,0003.22
2023-11-08 22:53:00,SystemResetWarning,0833.5,4.99,000.00,023.3,022.5,000.0,031.9,024.4,21.7,0000.0,0003.44,0007.42,0003.21
2023-11-08 22:54:00,SystemResetWarning,0833.5,5.00,000.00,023.3,022.5,000.0,031.9,024.4,21.7,0000.0,0003.44,0007.26,0003.21
2023-11-08 22:55:00,SystemResetWarning,0833.5,5.00,000.00,023.3,022.5,000.0,031.8,024.4,21.7,0000.0,0003.42,0006.54,0003.20
2023-11-08 22:56:00,SystemResetWarning,0833.6,5.01,000.00,023.3,022.4,000.0,031.8,024.4,21.7,0000.0,0003.42,0006.61,0003.21
2023-11-08 22:57:00,SystemResetWarning,0833.6,5.01,000.00,023.3,022.4,000.0,031.8,024.4,21.8,0000.0,0003.43,0006.40,0003.22
2023-11-08 22:58:00,SystemResetWarning,0833.6,5.01,000.00,023.3,022.4,000.0,031.8,024.4,21.8,0000.0,0003.43,0006.55,0003.23
2023-11-08 22:59:00,SystemResetWarning,0833.6,5.00,000.00,023.3,022.4,000.0,031.8,024.4,21.7,0000.0,0003.43,0006.30,0003.23
